Regional Weather Roundup
Issued by NWS

Home | Current Version | Previous Version | Text Only | Print | Product List | Glossary On
Versions: 1 2 3 4 5 6 7 8 9 10 11 12 13 14 15 16 17 18 19 20 21 22 23 24 25 26 27 28 29 30 31 32 33 34 35 36 37 38 39 40 41 42 43 44 45 46 47 48 49 50
781
ASUS44 KLIX 240805
RWRLA
LOUISIANA WEATHER ROUNDUP
NATIONAL WEATHER SERVICE NEW ORLEANS LA
300 AM CDT THU APR 24 2014

NOTE: "FAIR" INDICATES FEW OR NO CLOUDS BELOW 12,000 FEET WITH NO
      SIGNIFICANT WEATHER AND/OR OBSTRUCTIONS TO VISIBILITY.
      SKY/WX - SKY CONDITION AND SIGNIFICANT WEATHER.
      TMP - AIR TEMPERATURE.    DP   - DEWPOINT TEMPERATURE.
      RH  - RELATIVE HUMIDITY.  PRES - PRESSURE.
      HX  - HEAT INDEX.         WCI  - WIND CHILL INDEX.

*  THESE STATIONS ARE NOT NWS OR FAA STATIONS AND ARE NOT UNDER
   NWS QUALITY CONTROL.

LAZ040-048-061>063-065-066-069-240900-
SOUTHEAST LOUISIANA

CITY           SKY/WX    TMP DP  RH WIND       PRES   REMARKS
N.O. AUDUBON   NOT AVBL
N.O. INTL ARPT CLEAR     67  64  90 SW5       29.91F
N.O. LAKEFRONT CLEAR     68  65  90 SW3       29.92F
N.O. DOWNTOWN* FAIR      70  63  78 S3        29.92F
SLIDELL        CLEAR     60  57  89 CALM      29.91F
BATON ROUGE    CLEAR     64  60  87 CALM      29.90F
BOOTHVILLE     CLEAR     70  64  81 SW9       29.93S
BELLE CHASSE   FOG       63  59  88 CALM      29.91F VSB 1/2
BOGALUSA*        N/A     60  57  87 CALM      29.93S
GALLIANO*      SUNNY     64  61  91 CALM      29.92S FOG
NEW ROADS*     FAIR      63  61  95 CALM      29.90F FOG
GONZALES*      FAIR      61  61 100 CALM      29.90F FOG
HAMMOND*       CLEAR     63  59  88 CALM      29.93S
HOUMA*         FOG       61  59  93 CALM      29.91F VSB 3/4
PORT FOURCHON* MOSUNNY   70  66  88 SW5       29.94S

$$

LAZ041-044-053-054-240900-
SOUTHWEST LOUISIANA

CITY           SKY/WX    TMP DP  RH WIND       PRES   REMARKS
LAKE CHARLES   FOG       63  62  97 CALM      29.88R VSB 1/4
LAFAYETTE      CLEAR     62  62 100 CALM      29.90S FOG
PATTERSON      CLEAR     63  63 100 CALM      29.94R VSB 1
SALT POINT       N/A     68  65  90 CALM      29.90S
NEW IBERIA       N/A     63  62  97 CALM      29.90F VSB 1/4
CHENAULT AIRPK FOG       62  62 100 CALM      29.89S VSB<1/4

$$

LAZ027-028-240900-
CENTRAL LOUISIANA

CITY           SKY/WX    TMP DP  RH WIND       PRES   REMARKS
FORT POLK      CLOUDY    63  62  97 S3        29.87F FOG
ALEXANDRIA INT MOCLDY    62  59  90 SE6       29.85F FOG
ALEXANDRIA     MOCLDY    58  55  90 CALM      29.88F

$$

LAZ001-002-240900-
NORTHWEST LOUISIANA

CITY           SKY/WX    TMP DP  RH WIND       PRES   REMARKS
SHREVEPORT     CLOUDY    64  60  87 S5        29.83S
BARKSDALE AFB  MOCLDY    63  57  81 SE3       29.84S
DTN SHREVEPORT MOCLDY    64  59  83 SE3       29.83F

$$

LAZ014-016-240900-
NORTHEAST LOUISIANA

CITY           SKY/WX    TMP DP  RH WIND       PRES   REMARKS
MONROE         PTCLDY    59  48  67 VRB3      29.88S
TALLULAH       CLEAR     57  55  93 E3        29.88F

$$




USA.gov is the U.S. government's official web portal to all federal, state and local government web resources and services.